Weather History for Deadhorse, AK

Change the Weather History Date:

Sunday, January 26, 2014

  Actual Average Record
Temperature  
Mean Temperature 2 °F -  
Max Temperature 5 °F -8 °F 29 °F (1991)
Min Temperature -2 °F -22 °F -59 °F (1989)
Degree Days  
Heating Degree Days 64    
Moisture  
Dew Point -3 °F    
Average Humidity 84    
Maximum Humidity 92    
Minimum Humidity 78    
Precipitation  
Precipitation 0.00 in - - ()
Sea Level Pressure  
Sea Level Pressure 30.08 in    
Wind  
Wind Speed 10 mph (ENE)    
Max Wind Speed 18 mph    
Max Gust Speed -    
Visibility 9 miles    
Events Snow    
Averages and records for this station are not official NWS values.
T = Trace of Precipitation, MM = Missing Value Source: NWS Daily Summary

Daily Weather History Graph

Daily Weather History Graph

Search for Another Location

Airport:

Trip Planner

Search our weather history database for the weather conditions in past years. The results will help you decide how hot, cold, wet, or windy it might be!

Date:

Astronomy

Jan. 26, 2014 Rise Set
Actual Time 11:16 AM AKST 2:57 PM AKST
Civil Twilight 9:36 AM AKST 4:37 PM AKST
Nautical Twilight 8:13 AM AKST 6:01 PM AKST
Astronomical Twilight 7:00 AM AKST 7:14 PM AKST
Moon 7:47 AM AKST (1/26) 10:08 AM AKST (1/26)
Length of Visible Light 7h 01m
Length of Day
3h 40m
Waning Crescent, 22% of the Moon is Illuminated
Jan 26
Waning Crescent
Jan 30
New
Feb 6
First Quarter
Feb 14
Full
Feb 22
Last Quarter

Hourly Weather History & Observations

Time (AKST) Temp. Windchill Dew Point Humidity Pressure Visibility Wind Dir Wind Speed Gust Speed Precip Events Conditions
12:53 AM -2.0 °F -17.7 °F -6.0 °F 83% 30.17 in 10.0 mi East 9.2 mph - N/A   Clear
1:53 AM -2.0 °F -12.2 °F -6.0 °F 83% 30.17 in 10.0 mi East 4.6 mph - N/A   Clear
2:53 AM -2.0 °F -17.7 °F -7.1 °F 79% 30.14 in 10.0 mi ENE 9.2 mph - N/A   Clear
3:33 AM -2.2 °F -18.0 °F -7.6 °F 78% 30.13 in 10.0 mi ENE 9.2 mph - N/A   Partly Cloudy
3:53 AM -0.9 °F -17.4 °F -6.0 °F 79% 30.13 in 10.0 mi ENE 10.4 mph - N/A   Mostly Cloudy
4:43 AM -0.4 °F -16.7 °F -5.8 °F 78% 30.11 in 10.0 mi ENE 10.4 mph - N/A   Scattered Clouds
4:53 AM -0.9 °F -16.4 °F -5.1 °F 83% 30.12 in 10.0 mi ENE 9.2 mph - N/A   Scattered Clouds
5:26 AM -0.4 °F -16.7 °F -5.8 °F 78% 30.12 in 10.0 mi ENE 10.4 mph - N/A   Overcast
5:53 AM -0.9 °F -17.4 °F -5.1 °F 83% 30.13 in 10.0 mi East 10.4 mph - N/A   Partly Cloudy
6:53 AM -0.0 °F -17.1 °F -5.1 °F 79% 30.12 in 8.0 mi ENE 11.5 mph - N/A   Partly Cloudy
7:53 AM -0.9 °F -17.4 °F -5.1 °F 83% 30.11 in 10.0 mi East 10.4 mph - N/A   Partly Cloudy
8:53 AM -0.9 °F -19.9 °F -5.1 °F 83% 30.08 in 10.0 mi East 13.8 mph - N/A   Mostly Cloudy
9:53 AM -0.9 °F -19.9 °F -5.1 °F 83% 30.07 in 10.0 mi ENE 13.8 mph - N/A   Mostly Cloudy
10:53 AM -0.0 °F -17.1 °F -2.9 °F 88% 30.07 in 10.0 mi ENE 11.5 mph - N/A   Mostly Cloudy
11:53 AM -0.0 °F -18.0 °F -2.9 °F 88% 30.06 in 10.0 mi ENE 12.7 mph - N/A   Mostly Cloudy
12:53 PM 1.9 °F -16.2 °F -2.0 °F 83% 30.05 in 10.0 mi ENE 13.8 mph - N/A   Mostly Cloudy
1:53 PM 3.9 °F -14.3 °F -0.0 °F 84% 30.04 in 10.0 mi ENE 15.0 mph - N/A   Mostly Cloudy
2:53 PM 5.0 °F -14.7 °F 1.0 °F 84% 30.01 in 6.0 mi ENE 18.4 mph - N/A Snow Blowing Snow
3:53 PM 3.9 °F -13.7 °F -0.0 °F 84% 30.03 in 7.0 mi ENE 13.8 mph - N/A   Mostly Cloudy
4:53 PM 3.9 °F -12.2 °F 1.0 °F 88% 30.02 in 10.0 mi East 11.5 mph - N/A   Mostly Cloudy
5:53 PM 3.9 °F -12.2 °F 1.0 °F 88% 30.02 in 10.0 mi East 11.5 mph - N/A   Mostly Cloudy
6:53 PM 3.0 °F -9.3 °F -0.9 °F 84% 30.04 in 10.0 mi East 6.9 mph - N/A   Mostly Cloudy
7:53 PM 3.9 °F -11.3 °F 1.0 °F 88% 30.04 in 10.0 mi NE 10.4 mph - N/A   Scattered Clouds
8:53 PM 3.0 °F -12.5 °F -0.9 °F 84% 30.04 in 10.0 mi East 10.4 mph - N/A   Scattered Clouds
9:04 PM 1.4 °F -12.5 °F -0.4 °F 92% 30.04 in 10.0 mi East 8.1 mph - N/A   Scattered Clouds
9:53 PM 1.9 °F -15.5 °F -0.9 °F 88% 30.04 in 10.0 mi ENE 12.7 mph - N/A   Scattered Clouds
10:53 PM 1.0 °F -14.9 °F -2.0 °F 87% 30.06 in 2.5 mi ENE 10.4 mph - N/A   Scattered Clouds
11:13 PM 1.4 °F -14.5 °F -2.2 °F 85% 30.06 in 5.0 mi ENE 10.4 mph - N/A   Mostly Cloudy
11:39 PM 1.4 °F -14.5 °F -2.2 °F 85% 30.06 in 10.0 mi ENE 10.4 mph - N/A   Clear
11:53 PM 1.0 °F -14.0 °F -2.9 °F 83% 30.07 in 10.0 mi ENE 9.2 mph - N/A   Clear